Muskogee, OK

9:36 PM CDT on May 27, 2017 (GMT -0500)
Davis

Weather History for KMKO - October, 2013

Change the Weather History Date:

Saturday, October 5, 2013

  Actual Average Record
Temperature  
Mean Temperature 60 °F -  
Max Temperature 75 °F 75 °F 91 °F (2005)
Min Temperature 48 °F 52 °F 39 °F (1999)
Degree Days  
Heating Degree Days 4    
Growing Degree Days 10 (Base 50)    
Moisture  
Dew Point 52 °F    
Average Humidity 87    
Maximum Humidity 100    
Minimum Humidity 62    
Precipitation  
Precipitation 0.95 in - - ()
Sea Level Pressure  
Sea Level Pressure 30.02 in    
Wind  
Wind Speed 10 mph (NNW)    
Max Wind Speed 22 mph    
Max Gust Speed 29 mph    
Visibility 8 miles    
Events Rain , Thunderstorm    
Averages and records for this station are not official NWS values.
T = Trace of Precipitation, MM = Missing Value Source: NWS Daily Summary

Daily Weather History Graph

Daily Weather History Graph

Search for Another Location

Airport or City:

Trip Planner

Search our weather history database for the weather conditions in past years. The results will help you decide how hot, cold, wet, or windy it might be!

Date:

Astronomy

Oct. 05, 2013 Rise Set
Actual Time 7:19 AM CDT 6:59 PM CDT
Civil Twilight 6:54 AM CDT 7:24 PM CDT
Nautical Twilight 6:24 AM CDT 7:54 PM CDT
Astronomical Twilight 5:55 AM CDT 8:23 PM CDT
Moon 7:57 AM CDT (10/5) 7:22 PM CDT (10/5)
Length of Visible Light 12h 30m
Length of Day
11h 39m
New Moon, 1% of the Moon is Illuminated
Oct 5
New Moon
Oct 11
First Quarter
Oct 18
Full
Oct 26
Last Quarter
Nov 3
New

Hourly Weather History & Observations

Time (CDT) Temp. Dew Point Humidity Pressure Visibility Wind Dir Wind Speed Gust Speed Precip Events Conditions
12:53 AM 73.9 °F 66.9 °F 79% 29.88 in 10.0 mi SE 5.8 mph - N/A   Scattered Clouds
1:53 AM 73.9 °F 68.0 °F 82% 29.89 in 10.0 mi SE 3.5 mph - 0.00 in   Overcast
2:53 AM 73.9 °F 69.1 °F 85% 29.86 in 10.0 mi SE 9.2 mph - N/A   Clear
3:46 AM 73.4 °F 69.8 °F 88% 29.90 in 10.0 mi WSW 6.9 mph - N/A   Overcast
3:53 AM 73.9 °F 69.1 °F 85% 29.88 in 10.0 mi West 10.4 mph - N/A   Overcast
4:26 AM 68.0 °F 66.2 °F 94% 29.92 in 4.0 mi NW 9.2 mph - 0.10 in Rain Rain
4:38 AM 66.2 °F 66.2 °F 100% 29.93 in 7.0 mi NW 18.4 mph 21.9 mph 0.12 in Rain Rain
4:53 AM 66.9 °F 64.9 °F 93% 29.91 in 10.0 mi NW 16.1 mph 20.7 mph 0.13 in Rain Light Rain
5:12 AM 64.4 °F 62.6 °F 94% 29.93 in 10.0 mi NNW 21.9 mph 28.8 mph 0.00 in Rain , Thunderstorm Light Rain
5:39 AM 55.4 °F 55.4 °F 100% 29.98 in 1.8 mi NNW 13.8 mph 23.0 mph 0.18 in Rain , Thunderstorm Heavy Thunderstorms and Rain
5:53 AM 55.0 °F 53.1 °F 93% 29.96 in 3.0 mi North 13.8 mph 23.0 mph 0.34 in Rain , Thunderstorm Thunderstorms and Rain
6:03 AM 55.4 °F 53.6 °F 94% 29.96 in 6.0 mi North 18.4 mph 23.0 mph 0.02 in Rain , Thunderstorm Thunderstorms and Rain
6:13 AM 53.6 °F 53.6 °F 100% 29.95 in 9.0 mi North 17.3 mph 24.2 mph 0.03 in Rain , Thunderstorm Light Thunderstorms and Rain
6:36 AM 53.6 °F 51.8 °F 94% 29.96 in 10.0 mi North 17.3 mph - 0.05 in Rain Light Rain
6:43 AM 53.6 °F 53.6 °F 100% 29.96 in 10.0 mi NNW 17.3 mph - 0.05 in Rain Light Rain
6:53 AM 54.0 °F 52.0 °F 93% 29.97 in 10.0 mi North 13.8 mph 21.9 mph 0.05 in   Overcast
7:13 AM 53.6 °F 51.8 °F 94% 30.00 in 10.0 mi NNW 15.0 mph - 0.00 in Rain Light Rain
7:20 AM 53.6 °F 51.8 °F 94% 30.00 in 10.0 mi NNW 15.0 mph 20.7 mph 0.00 in Rain Light Rain
7:53 AM 53.1 °F 50.0 °F 89% 30.01 in 10.0 mi NNW 12.7 mph - 0.00 in   Overcast
8:53 AM 52.0 °F 48.9 °F 89% 30.04 in 10.0 mi NNW 10.4 mph - 0.01 in   Overcast
9:53 AM 52.0 °F 46.0 °F 80% 30.07 in 10.0 mi NNW 13.8 mph - N/A   Overcast
10:53 AM 53.1 °F 43.0 °F 69% 30.07 in 10.0 mi NNW 18.4 mph 25.3 mph N/A   Overcast
11:53 AM 52.0 °F 41.0 °F 66% 30.10 in 9.0 mi North 13.8 mph - 0.00 in Rain Light Rain
12:01 PM 51.8 °F 44.6 °F 76% 30.11 in 9.0 mi NNW 12.7 mph - 0.01 in Rain , Thunderstorm Light Rain
12:12 PM 48.2 °F 44.6 °F 87% 30.12 in 1.2 mi NW 19.6 mph 24.2 mph 0.16 in Rain , Thunderstorm Heavy Thunderstorms and Rain
12:20 PM 48.2 °F 44.6 °F 87% 30.13 in 0.8 mi North 10.4 mph 24.2 mph 0.25 in Rain , Thunderstorm Heavy Thunderstorms and Rain
12:24 PM 48.2 °F 44.6 °F 87% 30.12 in 1.8 mi North 9.2 mph - 0.26 in Rain , Thunderstorm Thunderstorms and Rain
12:31 PM 48.2 °F 46.4 °F 93% 30.11 in 3.0 mi NNE 8.1 mph - 0.30 in Rain , Thunderstorm Heavy Thunderstorms and Rain
12:53 PM 51.1 °F 45.0 °F 80% 30.10 in 10.0 mi North 8.1 mph - 0.30 in Rain Light Rain
1:15 PM 50.0 °F 44.6 °F 82% 30.13 in 2.5 mi WNW 8.1 mph - 0.06 in Rain , Thunderstorm Heavy Rain
1:24 PM 50.0 °F 44.6 °F 82% 30.13 in 5.0 mi NW 9.2 mph - 0.07 in Rain , Thunderstorm Thunderstorms and Rain
1:53 PM 51.1 °F 46.0 °F 83% 30.10 in 10.0 mi Calm Calm - 0.12 in Rain Light Rain
2:53 PM 54.0 °F 46.9 °F 77% 30.08 in 10.0 mi NW 4.6 mph - N/A   Overcast
3:53 PM 57.9 °F 46.0 °F 65% 30.04 in 10.0 mi Variable 3.5 mph - N/A   Mostly Cloudy
4:53 PM 60.1 °F 46.9 °F 62% 30.01 in 10.0 mi North 3.5 mph - 0.00 in Rain Light Rain
5:53 PM 59.0 °F 48.0 °F 67% 30.02 in 10.0 mi Calm Calm - 0.00 in   Clear
6:53 PM 55.0 °F 50.0 °F 83% 30.03 in 10.0 mi SSW 3.5 mph - N/A   Clear
7:53 PM 51.1 °F 48.9 °F 92% 30.05 in 10.0 mi South 4.6 mph - N/A   Clear
8:53 PM 50.0 °F 48.9 °F 96% 30.06 in 10.0 mi SSE 3.5 mph - N/A   Clear
9:53 PM 50.0 °F 48.9 °F 96% 30.08 in 10.0 mi South 3.5 mph - N/A   Clear
10:53 PM 48.9 °F 46.9 °F 93% 30.07 in 10.0 mi Calm Calm - N/A   Clear
11:53 PM 48.0 °F 46.9 °F 96% 30.06 in 10.0 mi South 4.6 mph - N/A   Clear